#timestamp,LO_Frequency,Hit,StdDev 
1548972015.9,286047025.1,Y
1548972035.7,286047009.8,P
1548972055.6,286047011.5,P
1548972075.4,286047011.5,P
1548972095.3,286047016.9,Y
1548972115.1,286047003.9,P
1548972116.0,286047003.9,N
1548972135.8,286047007.5,N
1548972155.7,286047004.3,N
1548972175.5,286046998.7,N
1548972195.3,286047000.8,N
1548972215.2,286046988.2,N
1548972235.0,286046987.8,N
1548972235.9,286046987.8,N
1548972255.8,286046989.5,N
1548972275.6,286046986.6,N
1548972295.4,286046988.1,N
1548972315.3,286046987.6,N
1548972335.1,286046995.6,N
1548972355.9,286047000.2,N
1548972375.7,286046996.1,N
1548972395.5,286046997.5,N
1548972415.4,286046997.8,N
1548972435.2,286046989.2,N
1548972455.0,286046986.5,N
1548972455.9,286046986.5,N
1548972475.8,286046985.0,N
1548972495.6,286046979.6,N
1548972515.5,286046977.0,N
1548972535.3,286046978.9,N
1548972555.1,286046976.6,N
1548972575.9,286046978.7,N
1548972595.7,286046982.6,N
1548972615.6,286046976.5,N
1548972635.4,286046978.1,N
1548972655.2,286046979.7,N
1548972675.1,286046983.1,N
1548972676.0,286046983.1,N
1548972695.8,286046989.4,N
1548972715.6,286046992.3,N
1548972735.5,286046994.3,N
1548972755.3,286047001.8,N
1548972775.2,286047001.2,N
1548972795.9,286047006.2,N
1548972815.7,286047011.5,N
1548972835.6,286047007.0,N
1548972855.4,286047000.8,N
1548972875.3,286047006.7,N
1548972895.1,286046995.4,N
1548972896.0,286046995.4,N
1548972915.8,286046998.9,N
1548972935.7,286047009.2,N
1548972955.5,286047007.5,N
1548972975.3,286047000.7,N
1548972995.2,286047010.8,N
1548973015.0,286047009.8,N
1548973015.9,286047009.8,N
1548973035.8,286047007.1,N
1548973055.6,286047003.4,N
1548973075.4,286047000.0,N
1548973095.3,286046992.0,N
1548973115.1,286047005.8,N
1548973135.9,286047013.3,N
1548973155.7,286047015.0,N
1548973175.5,286047009.3,N
1548973195.4,286047008.0,N
1548973215.2,286047003.5,N
1548973235.0,286047008.6,N
1548973236.0,286047008.6,N
1548973255.8,286047007.3,N
1548973275.6,286047000.5,N
1548973295.5,286046996.0,N
1548973315.3,286046991.8,N
1548973335.1,286046989.4,N
1548973355.9,286046987.4,N
1548973375.7,286046993.8,N
1548973395.6,286046991.3,N
1548973415.4,286046988.7,N
1548973435.2,286046986.0,N
1548973455.1,286046986.9,N
1548973456.0,286046986.9,N
1548973475.8,286046987.5,N
1548973495.7,286046986.0,N
1548973515.5,286046989.6,N
1548973535.3,286046985.4,N
1548973555.2,286046987.0,N
1548973575.0,286046994.3,N
1548973575.9,286046994.3,N
1548973595.7,286047000.5,N
1548973615.6,286047002.5,N
1548973635.4,286047007.9,N
1548973655.3,286047009.9,N
1548973675.1,286047001.6,N
1548973676.0,286047001.6,N
1548973695.8,286046997.9,N
1548973715.7,286046998.9,N
1548973735.5,286046998.1,N
1548973755.3,286047001.1,N
1548973775.2,286047003.1,N
1548973795.0,286047003.5,N
1548973795.9,286047003.5,N
1548973815.8,286047006.8,N
1548973835.6,286047007.1,N
1548973855.4,286047013.4,N
1548973875.3,286047009.7,N
1548973895.1,286047015.4,N
1548973915.9,286047018.9,N
1548973935.7,286047011.1,N
1548973955.5,286046998.2,N
1548973975.4,286047004.7,N
1548973995.2,286047001.3,N
1548974015.0,286047003.9,N
1548974015.9,286047003.9,N
1548974035.8,286047000.7,N
1548974055.6,286047000.0,N
1548974075.5,286047005.7,N
1548974095.3,286047007.2,N
1548974115.2,286047002.5,N
1548974135.9,286047013.7,N
1548974155.7,286047007.0,N
1548974175.6,286047006.5,N
1548974195.4,286047014.7,N
1548974215.3,286047023.4,Y
1548974235.1,286047014.9,P
1548974236.0,286047014.9,P
1548974255.8,286047014.2,P
1548974275.7,286047008.6,N
1548974295.5,286047009.1,N
1548974315.3,286047006.0,N
1548974335.2,286047002.4,N
1548974355.0,286046991.7,N
1548974355.9,286046991.7,N
1548974375.8,286046996.5,N
1548974395.6,286046992.1,N
1548974415.4,286046987.4,N
1548974435.3,286046989.0,N
1548974455.1,286046993.5,N
1548974475.9,286046993.8,N
1548974495.7,286046995.5,N
1548974515.5,286047006.6,N
1548974535.4,286047010.5,N
1548974555.2,286047009.7,N
1548974575.0,286047015.9,N
1548974575.9,286047015.9,N
1548974595.8,286047017.0,N
1548974615.6,286047004.3,N
1548974635.5,286047002.1,N
1548974655.3,286047018.6,N
1548974675.1,286047038.9,Y
1548974695.9,286047031.0,P
1548974715.7,286047031.6,N
1548974735.5,286047016.9,N
1548974755.4,286047008.3,N
1548974775.2,286047004.3,N
1548974795.1,286047012.0,N
1548974796.0,286047012.0,N
1548974815.8,286047007.1,N
1548974835.6,286047000.9,N
1548974855.5,286047006.4,N
1548974875.3,286047015.4,N
1548974895.2,286047017.2,N
1548974915.9,286047019.8,N
1548974935.7,286047025.3,N
1548974955.6,286047035.1,Y
1548974975.4,286047011.1,P
1548974995.2,286047018.3,P
1548975015.1,286047018.6,P
1548975016.0,286047018.6,Y
1548975035.8,286046999.8,P
1548975055.7,286047005.7,N
1548975075.5,286047021.5,P
1548975095.3,286047023.4,N
1548975115.2,286047022.1,N
1548975135.0,286047020.3,N
1548975135.9,286047020.3,N
1548975155.8,286047031.2,Y
1548975175.6,286047010.2,P
1548975195.4,286046990.2,P
1548975215.3,286046977.3,N
1548975235.1,286046968.3,N
1548975255.8,286046959.7,N
1548975275.7,286046959.0,N
1548975295.5,286046958.7,N
1548975315.4,286046957.3,N
1548975335.2,286046957.2,N
1548975355.0,286046959.9,N
1548975355.9,286046959.9,N
1548975375.8,286046961.9,N
1548975395.6,286046964.4,N
1548975415.5,286046964.4,N
1548975435.3,286046963.4,N
1548975455.1,286046960.9,N
1548975475.9,286046969.4,N
1548975495.7,286046973.1,N
1548975515.5,286046978.6,N
1548975535.4,286046982.4,N
1548975555.2,286046980.8,N
1548975575.1,286046975.5,N
1548975576.0,286046975.5,N
1548975595.8,286046982.5,N
